Other Surface Observations
Issued by NWS

Home | Current Version | Previous Version | Text Only | Print | Product List | Glossary On
Versions: 1 2 3 4 5 6 7 8 9 10 11 12 13 14 15 16 17 18 19 20 21 22 23 24 25 26 27 28 29 30 31 32 33 34 35 36 37 38 39 40 41 42 43 44 45 46 47 48 49 50
000
SXUS52 KTAE 252318
OSOTAE
OSOTAE
North Florida/South Alabama/Southwest Georgia Weather Roundup
National Weather Service Tallahassee Florida
600 PM EST TUE NOV 25 2014

Note: "fair" indicates few or no clouds below 12,000 feet with no
significant weather and/or obstructions to visibility.

!FLZ017-115-028-034-025-260000
...North Florida...

CITY           SKY/WX    TMP DP  RH WIND       PRES   REMARKS
TALLAHASSEE    CLOUDY    54  51  90 N10       30.02R
APALACHICOLA   LGT RAIN  57  54  89 N13       29.98S
PERRY          RAIN      57  56  94 N8        29.98R
CROSS CITY       N/A     64  64 100 NE6       29.92S
JACKSONVILLE   RAIN      62  62 100 N10       29.93F FOG
$$

!FLZ112-006-005-002-011-260000
...Florida Panhandle...

CITY           SKY/WX    TMP DP  RH WIND       PRES   REMARKS
MARIANNA       CLOUDY    50  49  96 N6        30.07R
BONIFAY        RAIN      50  48  93 N6        30.08R FOG
PANAMA CITY NW CLOUDY    50  47  89 N12       30.03R
TYNDALL AFB    CLOUDY    50  50 100 N13       30.02R
TYND DRONE APT LGT RAIN  51  51  99 MISG      30.00R
DE FUNIAK SPR  RAIN      49  46  91 NE6       30.06R
EGLIN AFB      LGT RAIN  52  48  87 N3        30.07R
DESTIN         LGT RAIN  52  47  83 N5        30.06R
HURLBURT       CLOUDY    52  45  76 N6        30.06R
CRESTVIEW      CLOUDY    50  48  93 CALM      30.07R
PENSACOLA      LGT RAIN  54  44  69 N3        30.06R
$$

!ALZ063-066-260000
...South Alabama...

CITY           SKY/WX    TMP DP  RH WIND       PRES   REMARKS
DOTHAN         LGT RAIN  49  44  83 NE7       30.08S
OZARK CAIRNS   DRIZZLE   50  46  87 E2        30.07R
FT RUCKER HELI LGT RAIN  50  47  89 CALM      30.06R
RUCKER HELI 3  LGT RAIN  51  47  87 CALM      30.09R
RUCKER HELI 2  LGT RAIN  50  48  93 CALM      30.06S
FLORALA APT    LGT RAIN  50  47  89 CALM      30.07R
ANDALUSIA      CLOUDY    57  41  55 CALM      30.06R
TROY           CLOUDY    53  44  71 NW3       30.07R
EUFALA         LGT RAIN  51  49  92 CALM      30.04R
MOBILE         CLOUDY    53  36  52 NW8       30.12R
$$

!GAZ120>161-260000
...Southwest and South Central Georgia...

CITY           SKY/WX    TMP DP  RH WIND       PRES   REMARKS
THOMASVILLE    LGT RAIN  52  52 100 N7        30.05R
BAINBRIDGE     LGT RAIN  54  52  94 N7        30.03S
MOODY AFB      LGT RAIN  52  50  93 N10       30.01R
VALDOSTA       LGT RAIN  53  52  96 VRB5      30.01R FOG
MOULTRIE       CLOUDY    52  52 100 N6        30.03S
BLAKELY        RAIN      52  50  93 N3        30.04F
ALBANY         CLOUDY    50  47  89 N5        30.07R
TIFTON         DRIZZLE   50  49  97 NW6       30.03R
FITZGERALD     DRIZZLE   52  49  91 NW5       30.05R
CORDELE        CLOUDY    52  49  89 NW6       30.07R
AMERICUS       LGT RAIN  50  46  87 CALM      30.06F
HOMERVILLE     LGT RAIN  55  52  88 NE5       29.99R
$$

!GMZ750-755-770-775-260000
...Coastal and Buoy Obs...

STATION/POSITION TIME  TEMP    WIND        PRES    VSBY  WAVE
                       AIR SEA DIR/SP/G                  HT/PER
                 (UTC) (F)     (DEG/KT/KT) (MB)    (MI)  (FT/S)
KEATON BEACH     2300   59      20/  8/ 10 1014.1R
CEDAR KEY        2300   64      60/ 10/ 12 1012.8R
C TOWER          2300   58      20/ 20/ 22 1014.4R
APALACHICOLA BUO 2300   67 72   20/ 19/ 23 1012.4R         5/ 5
PANAMA CITY BUOY 2240   65 76   20/ 21/ 25 1014.4R         6/ 5
MOBILE BUOY      2200   61 72  340/ 19/ 27 1019.5          6/ 6
ORANGE BCH AL BU 2300   60 68  340/ 14/ 17 1017.4R         2/ 5
$$



USA.gov is the U.S. government's official web portal to all federal, state and local government web resources and services.